[[{"header":{"parameterUnit":"m.s-1","parameterCategory":1,"la1":30.2992,"la2":30.254,"lo1":-89.0895,"lo2":-89.0443,"dy":0.0025,"dx":0.0025,"nx":19,"ny":19,"refTime":"2026-05-19T09:00:00:Z","depth":0,"parameterNumber":2,"parameterNumberName":"U-component_of_WINDS"},"data":[0,0,0,-5.2869,-5.2871,-5.2959,-5.296,-5.3094,-5.3096,0,0,0,0,0,0,0,0,0,0,0,-5.2856,-5.2857,-5.2869,-5.2872,-5.2959,-5.296,-5.3094,-5.3096,0,0,0,0,0,0,0,0,0,0,0,-5.2855,-5.2857,-5.2859,-5.2872,-5.2959,-5.296,-5.3094,-5.3019,0,0,0,0,0,0,0,0,0,0,-5.293,-5.293,-5.2857,-5.2859,-5.2872,-5.2959,-5.296,-5.3016,-5.3024,-5.3064,0,-5.3102,0,-5.3102,-5.3106,-5.3107,0,0,0,-5.2862,-5.2923,-5.2936,-5.2859,-5.2873,-5.2959,-5.2917,-5.302,-5.303,-5.3076,-5.3104,-5.3109,-5.3104,-5.3107,-5.3108,-5.3372,-5.3373,0,0,-5.2857,-5.2878,-5.2929,-5.2943,-5.293,-5.2914,-5.292,-5.3026,-5.3058,-5.3105,-5.3111,-5.3106,-5.3108,-5.3109,-5.337,-5.3372,0,0,0,-5.2849,-5.2875,-5.2885,-5.2938,-5.2952,-5.2917,-5.2923,-5.3053,-5.3055,-5.3113,-5.3108,-5.3109,-5.3111,-5.3368,-5.3371,-5.3475,0,0,0,-5.2846,-5.2871,-5.2883,-5.2897,-5.2951,-5.3004,-5.2949,-5.3047,-5.3059,-5.3107,-5.3109,-5.3113,-5.3366,-5.3369,-5.3468,-5.3519,0,0,0,-5.2846,-5.2871,-5.2888,-5.2898,-5.2937,-5.3001,-5.3008,-5.3049,-5.3056,-5.3107,-5.3113,-5.3365,-5.3369,-5.3462,-5.3509,-5.3595,0,0,0,-5.2851,-5.2978,-5.289,-5.3031,-5.2936,-5.3066,-5.3007,-5.3103,-5.3159,-5.311,-5.3366,-5.337,-5.346,-5.3503,-5.3589,-5.367,-5.3706,0,0,-5.3023,-5.3,-5.3081,-5.3005,-5.3156,-5.3051,-5.3217,-5.3248,-5.3233,-5.3326,-5.3332,-5.347,-5.3508,-5.3594,-5.3906,-5.3935,0,0,0,-5.3143,-5.3201,-5.3236,-5.3292,-5.3319,-5.3348,-5.3351,-5.3363,-5.3442,-5.3285,-5.3525,-5.3547,-5.3596,-5.3634,-5.3658,-5.3699,-5.3389,-5.3389,-5.3389,-5.3414,-5.339,-5.3523,-5.3511,-5.3566,-5.357,-5.3613,-5.3629,-5.3587,-5.3645,-5.3671,-5.3864,-5.3909,-5.3927,-5.397,-5.3714,-5.3715,-5.3715,-5.3716,-5.3663,-5.3741,-5.3687,-5.3796,-5.3771,-5.3863,-5.3874,-5.3842,-5.3924,-5.3841,-5.3883,-5.3792,-5.396,-5.3996,-5.3723,-5.3722,-5.3721,-5.372,-5.372,-5.3836,-5.3869,-5.3884,-5.3964,-5.4028,-5.4013,-5.4095,-5.4069,-5.4046,-5.4088,-5.4113,-5.4111,-5.4105,-5.4102,-5.4103,-5.4104,-5.4104,-5.4105,-5.4105,-5.4008,-5.4022,-5.4094,-5.4138,-5.4172,-5.4213,-5.4223,-5.4256,-5.4285,-5.426,-5.426,-5.4213,-5.3982,-5.3923,-5.4115,-5.4114,-5.4112,-5.4111,-5.4111,-5.4264,-5.4204,-5.4315,-5.435,-5.4401,-5.4468,-5.4437,-5.4507,-5.4531,-5.4573,-5.4519,-5.4353,-5.4326,-5.4306,-5.4257,-5.4524,-5.4524,-5.4524,-5.4524,-5.4409,-5.4395,-5.4505,-5.4562,-5.4615,-5.46,-5.4729,-5.474,-5.4741,-5.4754,-5.4713,-5.4647,-5.4628,-5.4612,-5.4586,-5.454,-5.4873,-5.4873,-5.4874,-5.4565,-5.4555,-5.4668,-5.467,-5.471,-5.4745,-5.4866,-5.4935,-5.4924,-5.4887,-5.4765,-5.475,-5.4643,-5.461,-5.4566,-5.4525,-5.444,0,0]},{"header":{"parameterUnit":"m.s-1","parameterCategory":1,"la1":30.2992,"la2":30.254,"lo1":-89.0895,"lo2":-89.0443,"dy":0.0025,"dx":0.0025,"nx":19,"ny":19,"refTime":"2026-05-19T09:00:00:Z","depth":0,"parameterNumber":3,"parameterNumberName":"V-component_of_WINDS"},"data":[0,0,0,2.2408,2.2408,2.2434,2.2434,2.2435,2.2435,0,0,0,0,0,0,0,0,0,0,0,2.2384,2.2384,2.2408,2.2408,2.2434,2.2434,2.2435,2.2435,0,0,0,0,0,0,0,0,0,0,0,2.2384,2.2384,2.2383,2.2409,2.2434,2.2434,2.2435,2.2427,0,0,0,0,0,0,0,0,0,0,2.2407,2.2369,2.2384,2.2383,2.2409,2.2434,2.2434,2.2427,2.2427,2.2411,0,2.2395,0,2.2415,2.2433,2.2433,0,0,0,2.242,2.2369,2.2391,2.2383,2.2409,2.2433,2.2426,2.2427,2.2428,2.2412,2.2395,2.2396,2.2415,2.2433,2.2433,2.2309,2.2308,0,0,2.2419,2.2379,2.2391,2.2391,2.2387,2.2425,2.2426,2.2428,2.2406,2.2395,2.2396,2.2415,2.2433,2.2433,2.231,2.2309,0,0,0,2.2407,2.2377,2.24,2.239,2.2397,2.2425,2.2427,2.2406,2.2417,2.2396,2.2415,2.2433,2.2432,2.2312,2.231,2.2218,0,0,0,2.2407,2.2371,2.2399,2.2375,2.2396,2.2402,2.2404,2.2417,2.2418,2.2415,2.2433,2.2432,2.2313,2.2311,2.2223,2.218,0,0,0,2.2388,2.2369,2.2367,2.2373,2.2383,2.2403,2.2415,2.2418,2.2429,2.2433,2.2432,2.2314,2.2311,2.2228,2.2188,2.2137,0,0,0,2.2356,2.2282,2.2365,2.2289,2.2382,2.2347,2.2415,2.239,2.2382,2.2433,2.2313,2.231,2.2229,2.2193,2.2142,2.2088,2.2062,0,0,2.224,2.2266,2.2225,2.23,2.2241,2.2346,2.2272,2.2301,2.2336,2.2316,2.2313,2.2221,2.2189,2.2138,2.1928,2.1907,0,0,0,2.2175,2.2145,2.2138,2.2131,2.2154,2.217,2.2215,2.2226,2.2212,2.2318,2.2191,2.2172,2.2144,2.212,2.2102,2.2081,2.2297,2.2298,2.2298,2.1952,2.2005,2.1941,2.1997,2.1988,2.2038,2.2036,2.206,2.2111,2.208,2.2074,2.1941,2.1911,2.1898,2.1875,2.205,2.205,2.2049,2.2049,2.1788,2.1754,2.1829,2.1794,2.1849,2.1819,2.1864,2.1903,2.1882,2.1949,2.1927,2.1995,2.1873,2.1856,2.2043,2.2044,2.2045,2.2045,2.2046,2.1648,2.1641,2.1659,2.1656,2.1648,2.1706,2.1684,2.1735,2.1781,2.1759,2.176,2.1761,2.177,2.1756,2.1756,2.1755,2.1755,2.1755,2.1754,2.1496,2.1519,2.1496,2.1517,2.152,2.1531,2.1582,2.1586,2.1603,2.1641,2.1641,2.1696,2.1852,2.189,2.1747,2.1749,2.1749,2.175,2.1751,2.131,2.1362,2.1325,2.1329,2.1359,2.1348,2.1413,2.1418,2.1428,2.1416,2.1477,2.1584,2.1613,2.1628,2.166,2.1466,2.1466,2.1466,2.1466,2.1193,2.1214,2.119,2.1194,2.1202,2.1259,2.1216,2.1255,2.1302,2.1312,2.1347,2.1394,2.1407,2.1429,2.1448,2.1478,2.1243,2.1242,2.1242,2.1082,2.1107,2.1061,2.1112,2.1139,2.1161,2.1123,2.1122,2.1186,2.1234,2.1321,2.133,2.1406,2.1428,2.1477,2.1505,2.1563,0,0]}]]